GW6141 Weather Reports


time (UTC)temp
C
wind
direction
speed
KPH
gust
KPH
rain 1hr
cm
rain 24hr
cm
rain mn
cm
humidity
%
barometer
mb
20260504081535 8 254 0.0 0.0 0.00 0.00 0.00 84 1014.9
20260504050018 7 254 0.0 0.0 0.00 0.00 0.00 82 1015.0
20260504044522 6 254 0.0 0.0 0.00 0.00 0.00 82 1014.9
20260504043031 6 254 0.0 0.0 0.00 0.00 0.00 82 1015.0
20260504041512 6 254 0.0 0.0 0.00 0.00 0.00 81 1015.1
20260504040012 6 254 0.0 0.0 0.00 0.00 0.00 80 1015.0
20260504034515 6 254 0.0 0.0 0.00 0.00 0.00 79 1015.0
20260504033022 7 254 0.0 0.0 0.00 0.00 0.00 77 1015.1
20260504031524 7 254 0.0 0.0 0.00 0.00 0.00 76 1015.1
20260504030025 7 254 0.0 0.0 0.00 0.00 0.00 75 1015.1
20260504024513 7 254 0.0 0.0 0.00 0.00 0.00 73 1015.1
20260504023020 7 254 0.0 0.0 0.00 0.00 0.00 71 1015.0
20260504021524 8 254 0.0 0.0 0.00 0.00 0.00 69 1014.9
20260504020025 8 254 0.0 0.0 0.00 0.00 0.00 66 1014.7
20260504014533 9 254 0.0 0.0 0.00 0.00 0.00 63 1014.6
20260504013030 10 254 0.0 0.0 0.00 0.00 0.00 59 1014.3
20260504011521 10 254 0.0 0.0 0.00 0.00 0.00 56 1014.3
20260504010024 11 254 0.0 0.0 0.00 0.00 0.00 54 1014.1
20260504004533 11 254 0.0 0.0 0.00 0.00 0.00 50 1014.2
20260504003028 12 254 0.0 0.0 0.00 0.00 0.00 47 1014.1
20260504001518 13 254 0.0 0.0 0.00 0.00 0.00 44 1014.1
20260504000028 14 254 0.0 0.0 0.00 0.00 0.00 41 1014.2
20260503234522 15 254 0.0 0.0 0.00 0.00 0.00 42 1014.1
20260503233028 16 254 0.0 1.6 0.00 0.00 0.00 38 1013.9
20260503231531 17 248 0.0 4.8 0.00 0.00 0.00 32 1013.8
20260503230021 17 244 0.0 16.1 0.00 0.00 0.00 29 1013.8
20260503224527 17 277 3.2 8.0 0.00 0.00 0.00 29 1013.8
20260503223028 17 230 3.2 16.1 0.00 0.00 0.00 29 1013.9
20260503221523 17 294 3.2 11.3 0.00 0.00 0.00 30 1014.0
20260503220020 17 143 3.2 11.3 0.00 0.00 0.00 29 1014.1
20260503214518 18 228 1.6 9.7 0.00 0.00 0.00 27 1014.1
20260503213011 18 288 3.2 20.9 0.00 0.00 0.00 28 1014.1
20260503211529 18 274 1.6 11.3 0.00 0.00 0.00 27 1014.3
20260503210015 18 234 3.2 9.7 0.00 0.00 0.00 30 1014.3
20260503204522 18 311 1.6 11.3 0.00 0.00 0.00 29 1014.3
20260503203042 18 196 1.6 17.7 0.00 0.00 0.00 29 1014.3
20260503201519 18 205 0.0 8.0 0.00 0.00 0.00 34 1014.6
20260503200014 18 315 6.4 20.9 0.00 0.00 0.00 28 1015.0
20260503194531 17 129 4.8 17.7 0.00 0.00 0.00 30 1015.0
20260503193024 17 261 0.0 19.3 0.00 0.00 0.00 31 1015.2
20260503191524 17 254 1.6 12.9 0.00 0.00 0.00 31 1015.4
20260503190035 17 153 4.8 16.1 0.00 0.00 0.00 31 1015.8
20260503184522 16 252 1.6 17.7 0.00 0.00 0.00 35 1015.9
20260503183024 16 325 1.6 11.3 0.00 0.00 0.00 34 1016.1
20260503181518 16 268 0.0 4.8 0.00 0.00 0.00 39 1016.4
20260503180033 15 295 4.8 12.9 0.00 0.00 0.00 36 1016.7
20260503174527 15 288 1.6 11.3 0.00 0.00 0.00 35 1016.6
20260503173020 15 248 1.6 16.1 0.00 0.00 0.00 36 1017.1
20260503171523 15 279 1.6 12.9 0.00 0.00 0.00 43 1017.3